Hourly Data Report for October 10, 2014

All times are specified in Local Standard Time (LST). Add 1 hour to adjust for Daylight Saving Time where and when it is observed.

IQALUIT CLIMATE
NUNAVUT

63°44'50.000" N
68°32'40.000" W
33.50 m
2402592
71321
XFB

Download Data

Hourly Data (October 2014)
Hourly Data Report for October 10, 2014
Temp Definition
°C
Dew Point Temp Definition
°C
Rel Hum Definition
%
Wind Dir Definition
10's deg

Wind Spd Definition
km/h
Visibility Definition
km
Stn Press Definition
kPa
Hmdx Definition


Wind Chill Definition


Weather Definition


TIME
00:00 0.4 -1.2 89 6 10   99.37     LegendNANA
01:00 0.4 -1.0 91 23 2   99.24     LegendNANA
02:00 0.7 -1.1 88 9 15   99.10     LegendNANA
03:00 0.5 -1.0 90 6 5   98.96     LegendNANA
04:00 0.9 -1.2 86 8 4   98.82     LegendNANA
05:00 1.5 -1.4 81 7 16   98.68     LegendNANA
06:00 0.9 -0.3 92 6 13   98.57     LegendNANA
07:00 1.4 -0.1 89 36 4   98.46     LegendNANA
08:00 0.8 -0.1 94 31 11   98.39     LegendNANA
09:00 0.6 0.0 95 34 4   98.38     LegendNANA
10:00 0.7 0.2 97 16 3   98.37     LegendNANA
11:00 1.4 1.1 98 13 12   98.34     LegendNANA
12:00 1.1 0.5 96 13 25   98.35     LegendNANA
13:00 0.6 0.3 98 15 24   98.36     LegendNANA
14:00 0.7 0.4 98 15 32   98.41     LegendNANA
15:00 1.2 1.0 99 15 37   98.44     LegendNANA
16:00 1.6 1.4 99 14 43   98.47     LegendNANA
17:00 1.4 1.2 99 14 46   98.54     LegendNANA
18:00 1.3 1.1 99 15 32   98.60     LegendNANA
19:00 1.3 1.1 99 16 23   98.68     LegendNANA
20:00 1.1 1.0 99 16 21   98.74     LegendNANA
21:00 0.4 0.2 99 26 6   98.79     LegendNANA
22:00 -0.5 -0.8 98 33 4   98.81   -2 LegendNANA
23:00 -1.1 -1.4 98 36 6   98.83   -3 LegendNANA

Notes on Data Quality.

Legend

  • E = Estimated
  • M = Missing
  • NA = Not Available
  • ‡ = Partner data that is not subject to review by the National Climate Archives
Date modified: